This is the latest recevied weather packets stored in our database for station/object IW4ENL-7. If no packets are shown the sender has not sent any weather packets the latest 1 day(s).
| Time | Temp. | Humidity | Pressure | Rain* | Wind** | Luminosity | Snow |
|---|---|---|---|---|---|---|---|
| 1778034270 | 11.11° C | 69% | 959 hPa | - | - | - | - |
| 1778033173 | 11.11° C | 71% | 958 hPa | - | - | - | - |
| 1778032442 | 11.11° C | 69% | 958 hPa | - | - | - | - |
| 1778032259 | 11.11° C | 69% | 958 hPa | - | - | - | - |
| 1778031527 | 11.11° C | 68% | 958 hPa | - | - | - | - |
| 1778031161 | 11.11° C | 69% | 959 hPa | - | - | - | - |
| 1778030978 | 11.11° C | 69% | 959 hPa | - | - | - | - |
| 1778030247 | 11.11° C | 69% | 959 hPa | - | - | - | - |
| 1778029516 | 10.56° C | 71% | 959 hPa | - | - | - | - |
| 1778028967 | 10.56° C | 70% | 959 hPa | - | - | - | - |
| 1778028784 | 10.56° C | 70% | 959 hPa | - | - | - | - |
| 1778028601 | 10.56° C | 71% | 959 hPa | - | - | - | - |
| 1778028418 | 10.56° C | 71% | 959 hPa | - | - | - | - |
| 1778028052 | 10.56° C | 71% | 959 hPa | - | - | - | - |
| 1778027869 | 10.56° C | 71% | 959 hPa | - | - | - | - |
| 1778027686 | 11.11° C | 71% | 959 hPa | - | - | - | - |
| 1778027321 | 11.67° C | 71% | 959 hPa | - | - | - | - |
| 1778027138 | 12.22° C | 70% | 959 hPa | - | - | - | - |
| 1778026955 | 12.22° C | 70% | 959 hPa | - | - | - | - |
| 1778026772 | 12.22° C | 71% | 959 hPa | - | - | - | - |
| 1778023298 | 11.67° C | 68% | 960 hPa | - | - | - | - |
| 1778022749 | 11.11° C | 70% | 960 hPa | - | - | - | - |
| 1778022566 | 11.11° C | 70% | 960 hPa | - | - | - | - |
| 1778021103 | 10.56° C | 70% | 960 hPa | - | - | - | - |
| 1778020920 | 10° C | 68% | 960 hPa | - | - | - | - |
* Rain since midnight (hover to see other rain measurements)
** Current wind speed in m/s (hover to see current wind gust speed)